Weather History for KDNV - October, 2012

Change the Weather History Date:

Wednesday, October 10, 2012

  Actual Average (KLAF) Record (KLAF)
Temperature  
Mean Temperature 44 °F 56 °F  
Max Temperature 53 °F 67 °F 87 °F (2010)
Min Temperature 34 °F 45 °F 27 °F (1964)
Degree Days  
Heating Degree Days 21 10  
Month to date heating degree days 82  
Since 1 July heating degree days 167  
Cooling Degree Days 0 1  
Month to date cooling degree days 11  
Year to date cooling degree days 976  
Moisture  
Dew Point 32 °F    
Average Humidity 68    
Maximum Humidity 95    
Minimum Humidity 33    
Precipitation  
Precipitation 0.01 in 0.09 in 1.64 in (1959)
Month to date precipitation 0.99  
Year to date precipitation 29.20  
Sea Level Pressure  
Sea Level Pressure 30.10 in    
Wind  
Wind Speed 10 mph (WNW)    
Max Wind Speed 23 mph    
Max Gust Speed 31 mph    
Visibility 10 miles    
Events Rain    
T = Trace of Precipitation, MM = Missing Value Source: NWS Daily Summary

Daily Weather History Graph

Daily Weather History Graph

Search for Another Location

Airport or City:

Trip Planner

Search our weather history database for the weather conditions in past years. The results will help you decide how hot, cold, wet, or windy it might be!

Date:

Astronomy

Oct. 10, 2012 Rise Set
Actual Time 6:56 AM CDT 6:17 PM CDT
Civil Twilight 6:29 AM CDT 6:44 PM CDT
Nautical Twilight 5:57 AM CDT 7:16 PM CDT
Astronomical Twilight 5:26 AM CDT 7:47 PM CDT
Moon 1:31 AM CDT (10/10) 3:20 PM CDT (10/10)
Length of Visible Light 12h 15m
Length of Day
11h 21m
Waning Crescent, 27% of the Moon is Illuminated
Oct 10
Waning Crescent
Oct 15
New
Oct 21
First Quarter
Oct 29
Full
Nov 6
Last Quarter

Hourly Weather History & Observations

Time (CDT) Temp. Windchill Dew Point Humidity Pressure Visibility Wind Dir Wind Speed Gust Speed Precip Events Conditions
12:15 AM 46.4 °F 40.7 °F 41.4 °F 83% 29.93 in 10.0 mi NW 12.7 mph 18.4 mph N/A   Overcast
12:35 AM 46.4 °F 39.5 °F 41.0 °F 81% 29.94 in 10.0 mi NW 17.3 mph 23.0 mph N/A   Overcast
12:55 AM 44.8 °F 38.3 °F 41.9 °F 90% 29.95 in 7.0 mi NW 13.8 mph - N/A   Light Drizzle
1:15 AM 44.2 °F 38.0 °F 41.9 °F 91% 29.94 in 7.0 mi NW 12.7 mph - N/A Rain Rain
1:35 AM 44.1 °F 39.5 °F 42.1 °F 93% 29.95 in 7.0 mi NW 8.1 mph - N/A Rain Rain
1:55 AM 43.7 °F 37.7 °F 41.2 °F 91% 29.95 in 10.0 mi NW 11.5 mph - N/A Rain Light Rain
2:15 AM 43.0 °F 38.2 °F 40.6 °F 91% 29.96 in 10.0 mi NNW 8.1 mph - N/A Rain Light Rain
2:35 AM 42.8 °F 39.3 °F 40.5 °F 91% 29.95 in 10.0 mi NW 5.8 mph - 0.01 in Rain Light Rain
2:55 AM 42.8 °F 39.3 °F 40.1 °F 90% 29.96 in 10.0 mi WNW 5.8 mph - 0.01 in   Unknown
3:15 AM 42.8 °F 38.6 °F 40.1 °F 90% 29.96 in 10.0 mi WNW 6.9 mph - N/A   Unknown
3:35 AM 42.4 °F 38.8 °F 40.1 °F 91% 29.96 in 10.0 mi West 5.8 mph - N/A   Unknown
3:55 AM 41.0 °F 37.1 °F 38.8 °F 92% 29.97 in 10.0 mi West 5.8 mph - N/A   Unknown
4:15 AM 40.1 °F 36.1 °F 38.5 °F 94% 29.98 in 10.0 mi West 5.8 mph - N/A   Unknown
4:35 AM 40.1 °F 34.7 °F 38.7 °F 95% 29.98 in 10.0 mi West 8.1 mph - N/A   Unknown
4:55 AM 40.5 °F 34.1 °F 38.8 °F 94% 29.99 in 10.0 mi West 10.4 mph - N/A   Unknown
5:15 AM 40.6 °F 35.4 °F 38.7 °F 93% 30.00 in 10.0 mi West 8.1 mph - N/A   Unknown
5:35 AM 40.1 °F 34.7 °F 37.9 °F 92% 30.00 in 10.0 mi WNW 8.1 mph - N/A   Unknown
5:55 AM 39.2 °F 33.6 °F 37.4 °F 93% 30.01 in 10.0 mi WNW 8.1 mph - N/A   Clear
6:15 AM 39.4 °F 33.8 °F 37.4 °F 93% 30.02 in 10.0 mi WNW 8.1 mph - N/A   Clear
6:35 AM 39.2 °F 33.6 °F 36.7 °F 91% 30.03 in 10.0 mi WNW 8.1 mph - N/A   Clear
6:55 AM 38.7 °F 32.9 °F 36.5 °F 92% 30.04 in 10.0 mi West 8.1 mph - N/A   Clear
7:15 AM 38.7 °F 31.8 °F 36.1 °F 91% 30.04 in 10.0 mi WNW 10.4 mph - N/A   Clear
7:35 AM 38.8 °F 33.2 °F 35.8 °F 89% 30.06 in 10.0 mi WNW 8.1 mph - N/A   Clear
7:55 AM 39.4 °F 32.7 °F 35.2 °F 85% 30.07 in 10.0 mi WNW 10.4 mph - N/A   Clear
8:15 AM 40.1 °F 33.2 °F 34.9 °F 82% 30.08 in 10.0 mi WNW 11.5 mph - N/A   Clear
8:35 AM 40.8 °F 33.7 °F 34.5 °F 78% 30.09 in 10.0 mi WNW 12.7 mph 18.4 mph N/A   Clear
8:55 AM 41.4 °F 33.6 °F 34.2 °F 76% 30.10 in 10.0 mi WNW 15.0 mph 19.6 mph N/A   Clear
9:15 AM 42.1 °F 35.2 °F 33.3 °F 71% 30.11 in 10.0 mi WNW 12.7 mph 19.6 mph N/A   Clear
9:35 AM 43.0 °F 36.4 °F 32.4 °F 66% 30.12 in 10.0 mi WNW 12.7 mph 20.7 mph N/A   Clear
9:55 AM 44.6 °F 37.8 °F 32.5 °F 63% 30.13 in 10.0 mi WNW 15.0 mph - N/A   Clear
10:15 AM 45.9 °F 38.5 °F 31.6 °F 58% 30.14 in 10.0 mi WNW 18.4 mph 26.5 mph N/A   Clear
10:35 AM 46.6 °F - 31.6 °F 56% 30.14 in 10.0 mi WNW 16.1 mph 19.6 mph N/A   Scattered Clouds
10:55 AM 46.2 °F 39.3 °F 28.8 °F 51% 30.15 in 10.0 mi WNW 17.3 mph 25.3 mph N/A   Scattered Clouds
11:15 AM 47.5 °F - 29.8 °F 50% 30.15 in 10.0 mi WNW 12.7 mph 26.5 mph N/A   Scattered Clouds
11:35 AM 48.4 °F - 25.5 °F 41% 30.15 in 10.0 mi NW 18.4 mph 25.3 mph N/A   Unknown
11:55 AM 48.7 °F - 26.1 °F 41% 30.16 in 10.0 mi WNW 21.9 mph 29.9 mph N/A   Unknown
12:15 PM 49.1 °F - 25.2 °F 39% 30.16 in 10.0 mi WNW 17.3 mph 27.6 mph N/A   Unknown
12:35 PM 50.2 °F - 24.4 °F 37% 30.15 in 10.0 mi WNW 21.9 mph 27.6 mph N/A   Unknown
12:55 PM 50.7 °F - 25.0 °F 37% 30.16 in 10.0 mi NW 12.7 mph 26.5 mph N/A   Unknown
1:15 PM 51.1 °F - 23.0 °F 33% 30.15 in 10.0 mi NW 23.0 mph 28.8 mph N/A   Unknown
1:35 PM 50.9 °F - 23.7 °F 35% 30.15 in 10.0 mi NW 18.4 mph 31.1 mph N/A   Unknown
1:55 PM 51.4 °F - 25.0 °F 36% 30.15 in 10.0 mi NW 19.6 mph 24.2 mph N/A   Scattered Clouds
2:15 PM 52.5 °F - 26.6 °F 37% 30.15 in 10.0 mi WNW 15.0 mph 24.2 mph N/A   Unknown
2:35 PM 51.6 °F - 26.1 °F 37% 30.15 in 10.0 mi NW 11.5 mph 23.0 mph N/A   Scattered Clouds
2:55 PM 51.8 °F - 26.4 °F 37% 30.15 in 10.0 mi WNW 13.8 mph 25.3 mph N/A   Scattered Clouds
3:15 PM 51.4 °F - 27.0 °F 39% 30.15 in 10.0 mi NW 16.1 mph 25.3 mph N/A   Unknown
3:35 PM 52.7 °F - 26.6 °F 36% 30.15 in 10.0 mi WNW 15.0 mph - N/A   Unknown
3:55 PM 50.4 °F - 26.2 °F 39% 30.15 in 10.0 mi WNW 15.0 mph 19.6 mph N/A   Unknown
4:15 PM 53.2 °F - 27.1 °F 37% 30.15 in 10.0 mi WNW 15.0 mph 24.2 mph N/A   Unknown
4:55 PM 52.0 °F - 25.7 °F 36% 30.15 in 10.0 mi WNW 9.2 mph 19.6 mph N/A   Unknown
5:15 PM 51.4 °F - 26.2 °F 38% 30.15 in 10.0 mi West 10.4 mph 17.3 mph N/A   Unknown
5:35 PM 50.7 °F - 26.6 °F 39% 30.15 in 10.0 mi West 11.5 mph - N/A   Unknown
5:55 PM 49.3 °F - 27.7 °F 43% 30.16 in 10.0 mi WNW 6.9 mph - N/A   Clear
6:15 PM 46.8 °F - 29.1 °F 50% 30.16 in 10.0 mi West 4.6 mph - N/A   Clear
6:35 PM 46.0 °F 43.9 °F 28.4 °F 50% 30.17 in 10.0 mi West 4.6 mph - N/A   Clear
6:55 PM 45.5 °F 44.2 °F 28.4 °F 51% 30.17 in 10.0 mi West 3.5 mph - N/A   Clear
7:15 PM 42.4 °F - 29.1 °F 59% 30.18 in 10.0 mi Calm Calm - N/A   Clear
7:35 PM 42.3 °F - 29.1 °F 60% 30.18 in 10.0 mi Calm Calm - N/A   Clear
7:55 PM 41.2 °F - 30.0 °F 65% 30.18 in 10.0 mi Calm Calm - N/A   Clear
8:15 PM 40.1 °F - 30.9 °F 70% 30.19 in 10.0 mi Calm Calm - N/A   Clear
8:35 PM 37.4 °F 34.9 °F 31.1 °F 78% 30.19 in 10.0 mi SSW 3.5 mph - N/A   Clear
8:55 PM 38.3 °F - 31.5 °F 76% 30.19 in 10.0 mi Calm Calm - N/A   Clear
9:15 PM 37.2 °F - 30.9 °F 78% 30.20 in 10.0 mi Calm Calm - N/A   Clear
9:35 PM 37.4 °F - 32.0 °F 81% 30.20 in 10.0 mi Calm Calm - N/A   Clear
9:55 PM 36.3 °F - 30.9 °F 81% 30.20 in 10.0 mi Calm Calm - N/A   Clear
10:15 PM 35.2 °F 32.4 °F 31.5 °F 86% 30.20 in 10.0 mi SSW 3.5 mph - N/A   Clear
10:35 PM 35.6 °F - 32.0 °F 87% 30.20 in 10.0 mi Calm Calm - N/A   Clear
10:55 PM 36.1 °F - 32.0 °F 85% 30.20 in 10.0 mi Calm Calm - N/A   Clear
11:15 PM 36.5 °F - 32.0 °F 84% 30.20 in 10.0 mi Calm Calm - N/A   Clear
11:35 PM 36.7 °F - 32.0 °F 83% 30.20 in 10.0 mi Calm Calm - N/A   Clear
11:55 PM 34.9 °F - 31.3 °F 87% 30.19 in 10.0 mi Calm Calm - N/A   Clear